Satellite-Ground Cal/Val Region Overpasses Predictions

Prediction of Satellite NPP Overpassing Cal/Val Region: PacNW

Region Location: (Latitude: 10.00, Longitude: 139.50) to (Latitude: 22.70, Longitude: 165.60).

Table of predicted overpasses for the next 14.0 days since TLE Epoch: 12/31/2021
Interval Starting Time Starting Location Ending Time Ending Location
1 12/31/2021 14:35:08 ( 18.86, 165.59) 12/31/2021 14:37:38 ( 10.05, 163.53)
2 12/31/2021 16:15:32 ( 22.66, 141.15) 12/31/2021 16:17:27 ( 15.91, 139.51)
3 01/01/2022 03:24:37 ( 10.05, 148.68) 01/01/2022 03:28:12 ( 22.67, 145.68)
4 01/01/2022 15:56:29 ( 22.68, 145.91) 01/01/2022 16:00:04 ( 10.06, 142.91)
5 01/02/2022 03:05:34 ( 10.04, 153.44) 01/02/2022 03:09:09 ( 22.66, 150.44)
6 01/02/2022 15:37:26 ( 22.69, 150.68) 01/02/2022 15:41:02 ( 10.01, 147.67)
7 01/03/2022 02:46:30 ( 10.02, 158.21) 01/03/2022 02:50:05 ( 22.64, 155.21)
8 01/03/2022 15:18:23 ( 22.65, 155.43) 01/03/2022 15:21:58 ( 10.03, 152.43)
9 01/04/2022 02:27:27 ( 10.00, 162.97) 01/04/2022 02:31:03 ( 22.69, 159.96)
10 01/04/2022 14:59:20 ( 22.66, 160.20) 01/04/2022 15:02:55 ( 10.04, 157.20)
11 01/05/2022 02:10:59 ( 19.15, 165.59) 01/05/2022 02:11:59 ( 22.67, 164.73)
12 01/05/2022 03:49:53 ( 10.00, 142.36) 01/05/2022 03:53:18 ( 22.04, 139.51)
13 01/05/2022 14:40:16 ( 22.68, 164.96) 01/05/2022 14:43:51 ( 10.06, 161.96)
14 01/05/2022 16:21:46 ( 22.67, 139.59) 01/05/2022 16:21:51 ( 22.37, 139.51)
15 01/06/2022 03:30:51 ( 10.05, 147.12) 01/06/2022 03:34:26 ( 22.67, 144.12)
16 01/06/2022 16:02:43 ( 22.68, 144.35) 01/06/2022 16:06:19 ( 10.00, 141.34)
17 01/07/2022 03:11:47 ( 10.03, 151.88) 01/07/2022 03:15:22 ( 22.66, 148.88)
18 01/07/2022 15:43:39 ( 22.70, 149.12) 01/07/2022 15:47:15 ( 10.02, 146.10)
19 01/08/2022 02:52:44 ( 10.02, 156.65) 01/08/2022 02:56:19 ( 22.64, 153.65)
20 01/08/2022 15:24:37 ( 22.65, 153.87) 01/08/2022 15:28:12 ( 10.03, 150.87)
21 01/09/2022 02:33:41 ( 10.01, 161.41) 01/09/2022 02:37:17 ( 22.69, 158.40)
22 01/09/2022 15:05:33 ( 22.66, 158.63) 01/09/2022 15:09:08 ( 10.04, 155.63)
23 01/10/2022 02:15:20 ( 12.52, 165.60) 01/10/2022 02:18:13 ( 22.68, 163.16)
24 01/10/2022 03:56:07 ( 10.01, 140.80) 01/10/2022 03:57:42 ( 15.59, 139.51)
25 01/10/2022 14:46:30 ( 22.67, 163.40) 01/10/2022 14:50:05 ( 10.05, 160.40)
26 01/11/2022 03:37:05 ( 10.05, 145.55) 01/11/2022 03:40:40 ( 22.68, 142.55)
27 01/11/2022 14:30:29 ( 11.95, 165.59) 01/11/2022 14:31:02 ( 10.01, 165.15)
28 01/11/2022 16:08:56 ( 22.68, 142.79) 01/11/2022 16:12:31 ( 10.05, 139.79)
29 01/12/2022 03:18:01 ( 10.04, 150.31) 01/12/2022 03:21:36 ( 22.67, 147.31)
30 01/12/2022 15:49:53 ( 22.69, 147.55) 01/12/2022 15:53:29 ( 10.01, 144.54)
31 01/13/2022 02:58:58 ( 10.03, 155.08) 01/13/2022 03:02:33 ( 22.66, 152.08)
32 01/13/2022 15:30:49 ( 22.70, 152.32) 01/13/2022 15:34:25 ( 10.02, 149.30)
